Location: Oundoundou
(13.6667°N, 13.5500°W)
Time: 21:10:43
(UTC+00:00)

Daily predictions for brighter satellites

Satellite Brightness Start Highest point End
(mag) Time Altitude Azimuth Time Altitude Azimuth Time Altitude Azimuth
SMAP 3.2 18:45:22 10° S 18:50:01 84° W 18:54:39 10° NNW
Cosmos 1452 Rocket 4.1 18:56:08 10° SSE 19:00:57 38° E 19:05:46 10° NE
IDEFIX/ARIANE 42P 3.2 18:57:04 10° S 19:02:13 62° WSW 19:07:20 10° NNW
OAO 2 Rocket 3.6 19:02:25 10° WSW 19:07:36 64° NNW 19:12:12 12° NE
GPS 2-18 Rocket1 4.0 19:04:03 10° W 19:07:48 48° SSW 19:11:39 10° SE
COSMOS 2487 2.4 19:04:57 10° N 19:08:32 79° E 19:12:04 10° SSE
Cosmos 1833 Rocket 3.4 19:04:50 10° N 19:09:41 30° ENE 19:14:31 10° SE
ARIANE 44L R/B 4.4 19:01:02 10° W 19:11:27 35° SSW 19:14:24 10° SE
BREEZE-M DEB (TANK) 2.5 19:06:29 10° NW 19:12:00 71° NE 19:14:28 10° SE
Cosmos 1666 3.5 19:13:02 10° NNE 19:16:30 31° E 19:19:57 10° SSE
Cosmos 2082 Rocket 2.5 19:11:07 10° N 19:16:30 44° ENE 19:21:53 10° SE
Meteor 2-8 Rocket 4.4 19:10:54 10° S 19:16:58 85° E 19:23:03 10° N
XTE 4.2 19:15:10 10° WNW 19:17:51 29° NNW 19:19:21 19° NNE
Genesis I 3.1 19:14:34 10° NNW 19:18:25 65° ENE 19:22:15 10° SSE
Cosmos 1892 Rocket 3.4 19:14:20 10° S 19:18:39 78° E 19:22:59 10° N
SJ-6B 3.8 19:19:02 10° SE 19:22:03 23° ENE 19:22:49 21° ENE
Fermi 3.7 19:20:28 10° WNW 19:24:34 66° NNE 19:27:16 20° E
Cosmos 1934 Rocket 4.1 19:22:20 10° N 19:28:27 55° E 19:34:38 10° SSE
Cosmos 1626 Rocket 4.4 19:26:42 10° SSE 19:30:30 29° E 19:31:31 26° ENE
Okean 2 4.3 19:30:39 10° SSW 19:34:39 50° W 19:38:41 10° N
Cosmos 1484 Rocket 3.7 19:31:43 10° S 19:35:23 48° W 19:39:00 10° NNW
Cosmos 1535 Rocket 4.4 19:29:50 10° N 19:36:02 88° E 19:42:11 10° S
Cosmos 1743 3.8 19:33:48 10° NNW 19:37:29 45° W 19:41:08 10° SSW
Palapa 6 Rocket 4.0 19:31:14 10° WNW 19:37:57 55° NNE 19:40:47 29° ENE
Cosmos 1515 3.9 19:35:12 10° SSE 19:38:54 48° E 19:39:58 36° NE
Cosmos 2369 Rocket 2.2 19:34:14 10° SSW 19:39:51 84° WNW 19:45:11 12° NNE
Cosmos 1726 Rocket 3.7 19:36:49 10° N 19:41:08 51° E 19:45:28 10° SSE
Ariane H10+ 4.1 19:41:01 10° SW 19:43:18 29° SSE 19:45:28 19° ESE
Meteor 1-15 Rocket 4.3 19:38:44 10° N 19:44:23 54° E 19:49:56 10° SSE
Haruka 2.6 19:41:23 10° SW 19:44:38 65° SSE 19:46:18 35° ENE
GPS 2-14 Rocket1 2.7 19:41:09 10° WNW 19:45:07 64° NNE 19:45:59 48° ENE
Cosmos 1420 Rocket 3.9 19:47:24 10° S 19:52:41 78° ESE 19:55:30 28° NNE
Meteor 2-9 Rocket 4.0 19:48:47 10° N 19:54:06 88° W 19:59:25 10° S
NOAA 12 4.0 19:49:57 10° SSE 19:55:15 84° ENE 20:00:31 10° N
Cosmos 1606 Rocket 3.9 19:55:44 10° NNW 20:00:09 67° W 20:04:34 10° S
ATLAS 3B CENTAUR R/B 3.9 19:50:21 10° WNW 20:05:42 36° N 20:08:26 29° NNE
Cosmos 1605 Rocket 3.9 20:05:21 10° N 20:11:34 88° W 20:17:41 10° S
GPS 2-17 Rocket1 3.9 20:07:06 10° WNW 20:10:54 39° NNW 20:10:54 39° NNW
Cosmos 1943 Rocket 2.0 20:07:24 10° SSW 20:13:01 82° ESE 20:14:00 61° NNE
Helios 1B rocket 3.0 20:12:39 45° NNW 20:13:29 55° WNW 20:17:29 10° SSW
Cosmos 1000 Rocket 4.3 20:08:36 10° S 20:14:38 62° E 20:15:08 60° ENE
METEOR-M 4.4 20:12:28 10° S 20:17:44 65° WSW 20:23:01 10° NNW
Lacrosse 4 Rocket 3.8 20:13:56 10° SSE 20:14:51 15° SSE 20:14:51 15° SSE
H-2A ROCKET BODY 3.7 19:50:21 10° SW 20:21:08 50° SSE 20:23:43 39° ESE
GPS 2-15 Rocket1 3.9 20:19:38 10° W 20:24:11 45° SSW 20:24:17 45° SSW
DELTA 2 R/B (1) 3.6 20:23:32 10° SW 20:28:50 78° W 20:28:50 78° W
Cosmos 2058 Rocket 4.2 20:32:57 39° WNW 20:33:22 40° W 20:37:28 10° SSW
Resurs 01 Rocket 4.3 20:57:25 10° SSW 20:58:11 14° SSW 20:58:11 14° SSW
Centaur AC-72 4.1 21:26:28 10° W 21:29:25 34° W 21:29:25 34° W
Milstar 3 4.4 21:51:46 10° SW 21:58:12 53° SW 21:58:12 53° SW
